{"data":{"norad_id":46075,"epoch":"2026-05-25T03:46:49.227744Z","epoch_age_seconds":51552,"freshness":"FRESH","line1":"1 46075U 20055BA  26145.15751421 -.00001090  00000+0 -24693-4 0  9997","line2":"2 46075  53.1611 105.8788 0001260  76.5325 283.5816 15.30178832320944","mean_motion":15.30178832,"eccentricity":0.000126,"inclination_deg":53.1611,"raan_deg":105.8788,"arg_perigee_deg":76.5325,"mean_anomaly_deg":283.5816,"bstar":-2.4693e-5,"rev_number":32094,"period_min":94.106647529418,"perigee_km":474.41474365586,"apogee_km":476.14180430491,"semimajor_km":6853.4152739804,"source":"CELESTRAK","updated_at":"2026-05-25T13:38:16.464318Z"}}